STARLINK-1302, 45375

Orbit data source: Space-Track

STARLINK-1302, 45375 is a payload satellite owned by SpaceX/Seattle (US) in LEO that was launched on Wed, 18 Mar 2020 UTC via an FALCON 9 launch vehicle from the Air Force Eastern Test Range (AFETR). Payload-class satellites include a variety of spacecraft equipped with specific instruments for various scientific and technological missions. These include communications satellites like Starlink; space stations such as the ISS; scientific satellites like the Hubble; Earth observation satellites from companies like Planet Labs, Umbra, and HawkEye 360; GPS; miniature CubeSats for education and research; and military/defense satellites.

Loading next visibility...
Identifier
45375, 2020-019R
Orbit
LEO
Country
Flag of USUS
Related business
Manufacturer
SpaceX/Seattle
Mission
Partially operational Commercial Communications
Bus & Motor
STARLINK, Unknown motor
Mass
260 kg wet, ~248 kg dry
Launch date (UTC)
2020-03-18 (6 years ago)
Launch vehicle
FALCON 9
Launch site
Air Force Eastern Test Range (AFETR)
Object type
Payload
Rocket body
Debris
Shape & HBR
Box + 1 Pan, 10.1 m
Radar Cross Section
13.562 m², Large (>1 m²)

Expand to show TLE details & history
Last TLE update: 7 hours ago

TLE from 7 hours ago
0 STARLINK-1302
1 45375U 20019R   26120.00001157  .00084993  00000-0  92225-3 0  9997
2 45375  53.0466 262.4516 0001797 294.1545 354.2812 15.62811808  5954
Epoch: 2026-04-30T00:00Z
TLE epoch observation values (Epoch: 2026-04-30T00:00:00.999Z)
Latitude
-49.47399°
Longitude
-16.56015°
Altitude
395.346 km
Speed
7.674 km/s
True Right ascension
13h 25m 35s
True Declination
-49° 17' 42"
Sunlit
Object was in full shadow at epoch
Visualization orbit readout
Latitude
Unknown
Longitude
Unknown
Altitude
Unknown
Speed
Unknown
Apparent Right ascension
Unknown
Apparent Declination
Unknown
Sunlit
N/A
Visualization observer readout
Local Sidereal Time
14:30:13
Azimuth
Unknown
Elevation
Unknown
Doppler factor
Unknown
Orbital elements
Apogee altitude
381.032 km
Perigee altitude
378.603 km
Semi-major axis
6,757.955 km
Eccentricity
0.00018
Inclination
53.0466°
RAAN
262.4516°
Arg. of periapsis
294.1545°
True anomaly
354.27915°
Mean anomaly
354.2812°
Eccentric anomaly
354.28017°
Mean motion
3.90679 °/min
Orbital period
92.15 mins
BSTAR
0.00092225
Loading maneuver chart data...
Computing Atmospheric mass density...
Loading historical data...
Loading historical data...
Loading historical data...
Loading historical data...
Loading historical data...
Loading historical data...
Loading historical data...

Documentation

Showing up to 5 results
|